Seretse Khama, Botswana

9:57 PM CAT on September 25, 2017 (GMT +0200)
Seretse Khama

Weather History for FBSK - January, 2013

Change the Weather History Date:

Saturday, January 26, 2013

  Actual Average Record
Temperature  
Mean Temperature 82 °F -  
Max Temperature 93 °F 86 °F 95 °F (2015)
Min Temperature 71 °F 65 °F 62 °F (2002)
Cooling Degree Days 17    
Growing Degree Days 32 (Base 50)    
Moisture  
Dew Point 54 °F    
Average Humidity 38    
Maximum Humidity 50    
Minimum Humidity 26    
Precipitation  
Precipitation 0.00 in - - ()
Sea Level Pressure  
Sea Level Pressure 30.04 in    
Wind  
Wind Speed 8 mph ()    
Max Wind Speed 13 mph    
Max Gust Speed -    
Visibility 6.2 miles    
Events      
Averages and records for this station are not official NWS values.
T = Trace of Precipitation, MM = Missing Value Source: Averaged Metar Reports

Daily Weather History Graph

Daily Weather History Graph

Search for Another Location

Airport or City:

Trip Planner

Search our weather history database for the weather conditions in past years. The results will help you decide how hot, cold, wet, or windy it might be!

Date:

Astronomy

Jan. 26, 2013 Rise Set
Actual Time 5:49 AM CAT 7:08 PM CAT
Civil Twilight 5:24 AM CAT 7:32 PM CAT
Nautical Twilight 4:55 AM CAT 8:01 PM CAT
Astronomical Twilight 4:25 AM CAT 8:32 PM CAT
Moon 6:29 PM CAT (1/26) 5:02 AM CAT (1/26)
Length of Visible Light 14h 07m
Length of Day
13h 18m
Waxing Gibbous, 99% of the Moon is Illuminated
Jan 26
Waxing Gibbous
Jan 27
Full
Feb 3
Last Quarter
Feb 10
New
Feb 17
First Quarter

Hourly Weather History & Observations

Time (CAT) Temp. Heat Index Dew Point Humidity Pressure Visibility Wind Dir Wind Speed Gust Speed Precip Events Conditions
12:00 AM 78.8 °F - 48.2 °F 34% 30.01 in - NNW 4.6 mph - N/A   Clear
1:00 AM 80.6 °F - 51.8 °F 37% 30.01 in - Variable 4.6 mph - N/A   Clear
2:00 AM 80.6 °F - 48.2 °F 32% 30.01 in - ENE 3.5 mph - N/A   Clear
4:00 AM 78.8 °F - 46.4 °F 32% 30.04 in - NE 12.7 mph - N/A   Clear
5:00 AM 75.2 °F - 50.0 °F 41% 30.04 in - ENE 9.2 mph - N/A   Clear
6:00 AM 73.4 °F - 48.2 °F 41% 30.06 in - NE 10.4 mph - N/A   Clear
7:00 AM 71.6 °F - 51.8 °F 50% 30.09 in - NE 4.6 mph - N/A   Clear
8:00 AM 75.2 °F - 53.6 °F 47% 30.09 in - NE 11.5 mph - N/A   Clear
9:00 AM 77.0 °F - 57.2 °F 50% 30.12 in - NE 10.4 mph - N/A   Clear
10:00 AM 80.6 °F 81.1 °F 59.0 °F 48% 30.09 in - NNE 12.7 mph - N/A   Clear
11:00 AM 84.2 °F 83.8 °F 59.0 °F 42% 30.09 in - NNE 11.5 mph - N/A   Clear
12:00 PM 87.8 °F 86.5 °F 57.2 °F 35% 30.06 in - ENE 10.4 mph - N/A   Clear
1:00 PM 89.6 °F 87.7 °F 55.4 °F 31% 30.06 in - NE 10.4 mph - N/A   Clear
2:00 PM 91.4 °F 89.4 °F 55.4 °F 29% 30.04 in 6.2 mi NE 10.4 mph - N/A   Partly Cloudy
3:00 PM 93.2 °F 91.3 °F 55.4 °F 28% 30.01 in 6.2 mi ENE 9.2 mph - N/A   Partly Cloudy
4:00 PM 91.4 °F 89.4 °F 55.4 °F 29% 30.01 in 6.2 mi NE 9.2 mph - N/A   Partly Cloudy
5:00 PM 93.2 °F 90.8 °F 53.6 °F 26% 29.98 in 6.2 mi NE 11.5 mph - N/A   Scattered Clouds
6:00 PM 89.6 °F 87.3 °F 53.6 °F 29% 29.98 in 6.2 mi NE 10.4 mph - N/A   Scattered Clouds
7:00 PM 86.0 °F 84.2 °F 53.6 °F 33% 30.01 in 6.2 mi NE 10.4 mph - N/A   Scattered Clouds
8:00 PM 84.2 °F 83.0 °F 55.4 °F 37% 30.01 in - NE 10.4 mph - N/A   Clear
9:00 PM 80.6 °F 80.8 °F 57.2 °F 45% 30.04 in - NE 10.4 mph - N/A   Clear
10:00 PM 78.8 °F - 57.2 °F 47% 30.06 in - NNE 9.2 mph - N/A   Clear
11:00 PM 78.8 °F - 57.2 °F 47% 30.06 in - NNE 9.2 mph - N/A   Clear